Location: Gunther Park
(40.9345°N, 73.8526°W)
Time: 22:18:41
(UTC+00:00)

Daily predictions for brighter satellites

Satellite Brightness Start Highest point End
(mag) Time Altitude Azimuth Time Altitude Azimuth Time Altitude Azimuth
YAOGAN 6 3.5 22:36:39 10° SE 22:39:48 27° ENE 22:42:57 10° NNE
Cosmos 1503 Rocket 4.0 22:36:05 10° NNW 22:41:12 60° ENE 22:46:18 10° SSE
COSMOS 2406 4.2 22:36:55 10° N 22:41:51 28° NE 22:46:42 10° ESE
SKYMED 2 3.8 22:39:36 10° NNE 22:43:48 47° E 22:47:59 10° S
Meteor 2-12 Rocket 4.5 22:38:02 10° N 22:44:11 66° E 22:50:17 10° SSE
Shenzhou-11 Module 1.8 22:42:32 10° W 22:45:18 74° N 22:48:04 10° ENE
YAOGAN 1 3.4 22:42:06 10° SE 22:45:52 30° ENE 22:49:39 10° N
Cosmos 1939 Rocket 4.5 22:46:27 10° ESE 22:48:51 16° ENE 22:51:17 10° NNE
SMAP 4.1 22:44:36 10° S 22:49:08 52° W 22:53:42 10° NNW
Meteor 2-10 4.5 22:45:49 10° SSE 22:50:27 36° E 22:55:02 10° NNE
Cosmos 1908 4.5 22:47:55 10° SE 22:50:54 21° E 22:53:54 10° NE
Lacrosse 5 rocket 1.4 22:47:16 10° NW 22:50:58 52° NE 22:54:52 10° ESE
FengYun 1-2 T 4.3 22:48:33 10° SSE 22:54:03 57° ENE 22:59:34 10° N
COBE Rocket 4.0 22:52:01 10° NNE 22:57:13 84° E 23:02:18 10° S
Cosmos 1470 4.4 22:54:01 10° SSW 22:57:45 39° WNW 23:01:32 10° N
Cosmos 1726 Rocket 3.5 22:54:06 10° S 22:58:30 75° E 23:02:53 10° N
Cosmos 1844 Rocket 3.1 22:53:25 10° SSW 22:59:03 70° WNW 23:04:43 10° NNE
Cosmos 2285 Rocket 4.1 22:54:13 10° NNW 23:00:42 89° ENE 23:07:06 10° SSE
Cosmos 1328 4.3 23:00:31 10° N 23:04:15 37° ENE 23:07:55 10° SSE
Meteor 1-16 Rocket 4.1 23:00:15 10° S 23:05:49 69° E 23:11:14 10° NNE
Abrixas rocket 3.1 23:04:18 10° SSW 23:07:02 29° SE 23:08:35 19° E
Cosmos 2228 3.1 23:02:43 10° S 23:07:05 82° W 23:11:29 10° N
CZ-4 R/B 1.4 23:05:47 10° SSE 23:09:53 73° ENE 23:14:06 10° N
Okean-O 3.9 23:07:12 10° S 23:11:26 45° W 23:15:42 10° NNW
Cosmos 2058 Rocket 3.0 23:07:20 10° S 23:11:39 67° E 23:16:00 10° NNE
CZ-4 R/B 4.4 23:09:19 10° SSE 23:13:26 84° ENE 23:17:34 10° N
Cosmos 1356 3.4 23:11:04 10° S 23:14:27 60° E 23:17:51 10° NNE
Cosmos 921 Rocket 3.3 23:13:21 10° SSW 23:17:51 77° WNW 23:22:22 10° NNE
Cosmos 2278 Rocket 2.6 23:13:08 10° S 23:18:22 40° ESE 23:23:39 10° NE
Cosmos 1844 4.4 23:17:00 10° SW 23:22:36 58° WNW 23:28:18 10° NNE
Envisat 3.6 23:19:00 10° S 23:24:00 60° W 23:29:03 10° NNW
OAO 3 Rocket 4.0 23:20:18 10° WSW 23:24:55 41° S 23:27:50 20° ESE
BREEZE M DEB (TANK) 2.8 23:23:37 10° NW 23:26:03 42° NNE 23:28:25 23° E
ATLAS 5 CENTAUR R/B 3.8 23:24:33 10° W 23:27:57 22° NW 23:31:40 10° NNE
COSMO-SKYMED 1 3.6 23:27:41 10° N 23:31:53 49° WNW 23:36:04 10° SSW
CZ-2D R/B 3.3 23:29:47 10° SSE 23:33:31 54° ENE 23:37:19 10° N
Cosmos 1339 Rocket 4.4 23:28:00 10° S 23:33:59 66° E 23:40:04 10° NNE
Cosmos 1271 Rocket 4.3 23:30:46 10° NNW 23:34:28 39° W 23:38:12 10° SSW
CZ-4C R/B 4.0 23:27:36 10° NW 23:34:44 48° WSW 23:42:36 10° S
Cosmos 1726 2.5 23:31:22 10° SSW 23:35:00 65° W 23:38:39 10° N
USA 116 3.7 23:32:40 10° N 23:35:47 63° WNW 23:39:05 10° SSW
Unknown 3.5 23:33:33 10° NW 23:35:47 33° NNE 23:35:47 33° NNE
Cosmos 839 Rocket 4.1 23:33:30 10° NNW 23:39:45 75° ENE 23:46:58 10° SE
DMSP B5D1-3 4.4 23:35:43 10° NNE 23:40:52 78° ESE 23:46:00 10° S
SL-4 R/B 2.6 23:37:35 10° WNW 23:41:14 46° SW 23:43:15 21° SSE
CSL-04 Rocket 4.0 23:37:45 10° S 23:43:17 70° WSW 23:48:48 10° NNW
OAO 2 Rocket 4.2 23:38:22 10° WSW 23:43:21 42° S 23:45:52 25° SE
ASTEX 1 4.5 23:40:43 10° N 23:45:27 47° WNW 23:50:12 10° SSW
Cosmos 482 Debris 3.7 23:41:38 10° NW 23:46:13 78° NE 23:46:42 61° ESE
Cosmos 1242 Rocket 3.4 23:42:50 10° NNW 23:46:26 53° W 23:50:01 10° S
NOAA 11 4.1 23:43:49 10° SSE 23:49:15 78° ENE 23:54:42 10° N
Cosmos 1605 Rocket 3.9 23:43:19 10° N 23:49:33 84° E 23:55:40 10° S
Cosmos 1703 3.8 23:50:15 10° NNW 23:54:08 58° W 23:57:58 10° S
